Location: Izdebno
(52.6670°N, 16.2170°E)
Time: 03:44:43
(UTC+02:00)

A-11 Canister half - Pass Details

Date: 11 February 2023
Orbit: 1526 x 1682 km, 47.3° (Epoch: 24 March)

Event Time Altitude Azimuth Distance (km) Brightness Sun altitude
Rises 11:16:15 0° 284° (WNW) 4,703 11.3 22.3°
Reaches altitude 10° 11:21:00 10° 263° (W) 3,738 11.0 22.5°
Maximum altitude 11:25:45 15° 232° (SW) 3,365 11.3 22.6°
Drops below altitude 10° 11:30:34 10° 201° (SSW) 3,786 12.2 22.8°
Sets 11:35:29 0° 181° (S) 4,800 13.0 22.9°
